EN

Hourly Weather Altstatten

Today, 23 January, Saturday

Time Temperature Precipitation Wind Pressure Humidity
00:00 +2°C° 0.7 mm 2 mps 684 mmHg 96%
01:00 +2°C° 0.7 mm 2 mps 684 mmHg 98%
02:00 0°C° 2.5 mm 3 mps 685 mmHg 98%
03:00 -1°C° 2.5 mm 4 mps 685 mmHg 98%
04:00 -1°C° 2.5 mm 5 mps 686 mmHg 98%
05:00 -2°C° 1.1 mm 4 mps 686 mmHg 98%
06:00 -1°C° 1.1 mm 3 mps 687 mmHg 97%
07:00 -2°C° 1.1 mm 2 mps 688 mmHg 97%
08:00 +1°C° 0.1 mm 1 mps 688 mmHg 95%
09:00 +1°C° 0.1 mm 1 mps 688 mmHg 94%
10:00 +1°C° 0.1 mm 1 mps 688 mmHg 92%
11:00 +2°C° 0 mm 1 mps 688 mmHg 92%
12:00 +2°C° 0 mm 1 mps 688 mmHg 91%
13:00 +3°C° 0 mm 1 mps 687 mmHg 90%
14:00 +2°C° 0 mm 1 mps 687 mmHg 91%
15:00 +2°C° 0 mm 1 mps 687 mmHg 91%
16:00 +1°C° 0 mm 0 mps 687 mmHg 92%
17:00 +1°C° 0 mm 1 mps 687 mmHg 91%
18:00 0°C° 0 mm 1 mps 687 mmHg 89%
19:00 -1°C° 0 mm 1 mps 687 mmHg 88%
20:00 -2°C° 0 mm 1 mps 687 mmHg 86%
21:00 -2°C° 0 mm 1 mps 687 mmHg 84%
22:00 -3°C° 0 mm 1 mps 687 mmHg 83%
23:00 -3°C° 0 mm 1 mps 687 mmHg 82%

Tomorrow, 24 January, Sunday

Time Temperature Precipitation Wind Pressure Humidity
00:00 -5°C° 0 mm 2 mps 687 mmHg 81%
01:00 -5°C° 0 mm 2 mps 687 mmHg 80%
02:00 -5°C° 0.2 mm 2 mps 687 mmHg 84%
03:00 -4°C° 0.2 mm 2 mps 687 mmHg 89%
04:00 -5°C° 0.2 mm 3 mps 688 mmHg 93%
05:00 -5°C° 0.1 mm 3 mps 688 mmHg 93%
06:00 -4°C° 0.1 mm 2 mps 689 mmHg 94%
07:00 -4°C° 0.1 mm 2 mps 689 mmHg 94%
08:00 -3°C° 0.4 mm 2 mps 690 mmHg 94%
09:00 -3°C° 0.4 mm 2 mps 690 mmHg 94%
10:00 -2°C° 0.4 mm 2 mps 691 mmHg 94%
11:00 -2°C° 0.1 mm 2 mps 690 mmHg 91%
12:00 -1°C° 0.1 mm 2 mps 690 mmHg 89%
13:00 +1°C° 0.1 mm 1 mps 690 mmHg 86%
14:00 +1°C° 0 mm 1 mps 690 mmHg 87%
15:00 +1°C° 0 mm 1 mps 690 mmHg 88%
16:00 -1°C° 0 mm 0 mps 690 mmHg 88%
17:00 -2°C° 0 mm 0 mps 690 mmHg 87%
18:00 -2°C° 0 mm 1 mps 690 mmHg 86%
19:00 -3°C° 0 mm 1 mps 690 mmHg 85%
20:00 -3°C° 0 mm 1 mps 690 mmHg 85%
21:00 -3°C° 0 mm 1 mps 690 mmHg 85%
22:00 -3°C° 0 mm 1 mps 690 mmHg 85%
23:00 -3°C° 0.1 mm 1 mps 690 mmHg 86%

Day after tomorrow, 25 January, Monday

Time Temperature Precipitation Wind Pressure Humidity
00:00 -5°C° 0.1 mm 2 mps 691 mmHg 87%
01:00 -5°C° 0.1 mm 2 mps 691 mmHg 88%
02:00 -5°C° 0.2 mm 2 mps 691 mmHg 89%
03:00 -5°C° 0.2 mm 2 mps 691 mmHg 91%
04:00 -5°C° 0.2 mm 2 mps 692 mmHg 92%
05:00 -5°C° 0.4 mm 2 mps 692 mmHg 93%
06:00 -5°C° 0.4 mm 2 mps 693 mmHg 94%
07:00 -6°C° 0.4 mm 3 mps 694 mmHg 95%
08:00 -5°C° 0.6 mm 3 mps 694 mmHg 94%
09:00 -5°C° 0.6 mm 4 mps 695 mmHg 94%
10:00 -5°C° 0.6 mm 4 mps 696 mmHg 94%
11:00 -4°C° 0.6 mm 4 mps 696 mmHg 93%
12:00 -4°C° 0.6 mm 4 mps 696 mmHg 91%
13:00 -3°C° 0.6 mm 4 mps 697 mmHg 89%
14:00 -2°C° 0.2 mm 3 mps 697 mmHg 89%
15:00 -4°C° 0.2 mm 3 mps 697 mmHg 88%
16:00 -3°C° 0.2 mm 2 mps 697 mmHg 87%
17:00 -3°C° 0.5 mm 2 mps 698 mmHg 89%
18:00 -5°C° 0.5 mm 3 mps 698 mmHg 91%
19:00 -5°C° 0.5 mm 3 mps 699 mmHg 93%
20:00 -5°C° 0.3 mm 3 mps 699 mmHg 92%
21:00 -5°C° 0.3 mm 3 mps 699 mmHg 91%
22:00 -5°C° 0.3 mm 3 mps 700 mmHg 90%
23:00 -5°C° 0.4 mm 3 mps 700 mmHg 90%

26 January, Tuesday

Time Temperature Precipitation Wind Pressure Humidity
00:00 -5°C° 0.4 mm 3 mps 700 mmHg 90%
01:00 -5°C° 0.4 mm 3 mps 700 mmHg 90%
02:00 -5°C° 0.2 mm 3 mps 701 mmHg 91%
03:00 -5°C° 0.2 mm 3 mps 701 mmHg 92%
04:00 -5°C° 0.2 mm 3 mps 701 mmHg 93%
05:00 -5°C° 0.3 mm 3 mps 701 mmHg 93%
06:00 -5°C° 0.3 mm 3 mps 701 mmHg 94%
07:00 -5°C° 0.3 mm 3 mps 702 mmHg 94%
08:00 -5°C° 0.3 mm 3 mps 702 mmHg 93%
09:00 -4°C° 0.3 mm 3 mps 702 mmHg 93%
10:00 -4°C° 0.3 mm 3 mps 702 mmHg 93%
11:00 -2°C° 0.4 mm 3 mps 702 mmHg 92%
12:00 -2°C° 0.4 mm 3 mps 702 mmHg 92%
13:00 -1°C° 0.4 mm 3 mps 702 mmHg 92%
14:00 -1°C° 0.1 mm 2 mps 702 mmHg 92%
15:00 -1°C° 0.1 mm 2 mps 702 mmHg 91%
16:00 +1°C° 0.1 mm 1 mps 702 mmHg 91%
17:00 0°C° 0 mm 1 mps 702 mmHg 90%
18:00 -1°C° 0 mm 1 mps 702 mmHg 89%
19:00 -3°C° 0 mm 2 mps 703 mmHg 88%
20:00 -3°C° 0 mm 2 mps 702 mmHg 87%
21:00 -3°C° 0 mm 2 mps 702 mmHg 86%
22:00 -3°C° 0 mm 2 mps 702 mmHg 84%
23:00 -3°C° 0.2 mm 2 mps 702 mmHg 87%

27 January, Wednesday

Time Temperature Precipitation Wind Pressure Humidity
00:00 -3°C° 0.2 mm 2 mps 701 mmHg 90%
01:00 -3°C° 0.2 mm 2 mps 701 mmHg 93%
02:00 -3°C° 0.5 mm 2 mps 700 mmHg 94%
03:00 -2°C° 0.5 mm 3 mps 699 mmHg 95%
04:00 -2°C° 0.5 mm 3 mps 699 mmHg 96%
05:00 -1°C° 1 mm 3 mps 699 mmHg 97%
06:00 0°C° 1 mm 3 mps 699 mmHg 97%
07:00 0°C° 1 mm 3 mps 699 mmHg 98%
08:00 0°C° 1.1 mm 4 mps 700 mmHg 98%
09:00 0°C° 1.1 mm 4 mps 700 mmHg 98%
10:00 0°C° 1.1 mm 4 mps 701 mmHg 98%
11:00 0°C° 0.5 mm 4 mps 701 mmHg 98%
12:00 0°C° 0.5 mm 4 mps 701 mmHg 98%
13:00 +1°C° 0.5 mm 4 mps 702 mmHg 98%
14:00 +2°C° 0.2 mm 3 mps 702 mmHg 97%
15:00 +2°C° 0.2 mm 3 mps 702 mmHg 97%
16:00 +3°C° 0.2 mm 2 mps 703 mmHg 96%
17:00 +2°C° 0.3 mm 2 mps 703 mmHg 96%
18:00 +2°C° 0.3 mm 2 mps 704 mmHg 95%
19:00 +2°C° 0.3 mm 2 mps 705 mmHg 95%
20:00 +1°C° 0.1 mm 2 mps 705 mmHg 93%
21:00 +1°C° 0.1 mm 2 mps 705 mmHg 92%
22:00 +1°C° 0.1 mm 2 mps 705 mmHg 91%
23:00 -1°C° 0 mm 2 mps 705 mmHg 88%

28 January, Thursday

Time Temperature Precipitation Wind Pressure Humidity
00:00 -2°C° 0 mm 2 mps 704 mmHg 85%
01:00 -3°C° 0 mm 2 mps 703 mmHg 83%
02:00 -2°C° 0 mm 2 mps 703 mmHg 81%
03:00 -2°C° 0 mm 2 mps 702 mmHg 78%
04:00 -1°C° 0 mm 2 mps 702 mmHg 76%
05:00 -1°C° 0.2 mm 2 mps 702 mmHg 79%
06:00 +1°C° 0.2 mm 2 mps 702 mmHg 81%
07:00 +1°C° 0.2 mm 2 mps 701 mmHg 84%
08:00 +2°C° 0.6 mm 2 mps 701 mmHg 88%
09:00 +2°C° 0.6 mm 2 mps 701 mmHg 92%
10:00 +2°C° 0.6 mm 2 mps 700 mmHg 95%
11:00 +3°C° 0 mm 2 mps 700 mmHg 96%
12:00 +4°C° 0 mm 2 mps 700 mmHg 96%
13:00 +4°C° 0 mm 2 mps 700 mmHg 97%
14:00 +4°C° 0.1 mm 2 mps 699 mmHg 97%
15:00 +4°C° 0.1 mm 2 mps 699 mmHg 96%
16:00 +4°C° 0.1 mm 2 mps 699 mmHg 96%
17:00 +3°C° 1.4 mm 3 mps 699 mmHg 96%
18:00 +3°C° 1.4 mm 3 mps 699 mmHg 97%
19:00 +2°C° 1.4 mm 3 mps 699 mmHg 97%
Show more